sat.trackr.live / text

‹ back to catalog

STARLINK-5472

NORAD 54767 · 2022-175K

PAYLOAD ACTIVE UNKNOWN

§ Identity

Operator
Country
US
Launch date
2022-12-17
Launch site
AFETR
Launch vehicle
Mass (kg)
RCS (m²)

Purposes: comms

External: N2YO · Heavens-Above · Gunter

§ Orbital elements

Epoch: 2026-09-20T22:11:37.046112Z

Period
95.39 min
Inclination
53.1606°
Eccentricity
0.0001433
Mean motion
15.09577308 rev/d
Perigee alt
536.5 km
Apogee alt
538.5 km
Semi-major
6,915.6 km
B*
5.4859e-3
RAAN
246.9571°
Arg perigee
76.8871°
Mean anomaly
283.2280°
Rev number
20,939

§ Raw data

STARLINK-54721 54767U 22175K   26263.92473433  .00089940  00000+0  54859-2 0  99922 54767  53.1606 246.9571 0001433  76.8871 283.2280 15.09577308209397

JSON: /api/v1/satellites/54767 · /tle

For live sub-satellite position, see the globe view (requires WebGL).

§ Visibility from observer

Set your observer location to see the next 7 days of passes ≥ 10°. The values pass through the URL so the page stays shareable.

No JS? Fill the form by hand. The geolocation button needs JavaScript.